DT_LEITURA;HR_LEITURA;MED-PressaoAtm[hPa];VAL-TempExt[oC];VAL-UmidExt[%UR];VAL-TempInt[oC];VAL-UmidInt[%UR];Dir-Vento[grau];Vel-Vento[m/s];Precipitação[mm/h]
31/08/2026;00:00:00;1011,9;-36,2;1;29,0;72;284;0,3;0,0
31/08/2026;00:05:00;1011,9;-36,2;1;29,0;72;82;0,4;0,0
31/08/2026;00:10:00;1011,8;-36,2;1;29,0;72;345;0,4;0,0
31/08/2026;00:15:00;1011,8;-36,1;1;29,0;72;348;0,3;0,0
31/08/2026;00:20:00;1011,7;-36,2;1;29,0;72;342;0,4;0,0
31/08/2026;00:25:00;1011,6;-36,2;0;29,0;73;316;0,5;0,0
31/08/2026;00:30:00;1011,7;-36,2;1;28,9;73;343;0,4;0,0
31/08/2026;00:35:00;1011,7;-36,2;1;28,9;72;358;0,3;0,0
31/08/2026;00:40:00;1011,7;-36,3;0;28,9;72;344;0,3;0,0
31/08/2026;00:45:00;1011,6;-36,3;0;28,9;72;233;0,3;0,0
31/08/2026;00:50:00;1011,5;-36,3;1;28,8;73;314;0,4;0,0
31/08/2026;00:55:00;1011,4;-36,3;1;28,8;73;347;0,5;0,0
31/08/2026;01:00:00;1011,4;-36,3;1;28,8;73;353;0,4;0,0
31/08/2026;01:05:00;1011,4;-36,3;1;28,7;73;16;14,1;0,0
31/08/2026;01:10:00;1011,4;-36,3;1;28,7;73;21;0,3;0,0
31/08/2026;01:15:00;1011,4;-36,3;0;28,7;73;18;0,5;0,0
31/08/2026;01:20:00;1011,4;-36,4;0;28,7;73;332;0,5;0,0
31/08/2026;01:25:00;1011,4;-36,4;0;28,6;73;352;0,4;0,0
31/08/2026;01:30:00;1011,3;-36,4;1;28,6;73;3;0,5;0,0
31/08/2026;01:35:00;1011,2;-36,3;1;28,6;74;335;0,6;0,0
31/08/2026;01:40:00;1011,2;-36,4;0;28,6;74;262;0,5;0,0
31/08/2026;01:45:00;1011,1;-36,3;1;28,6;74;328;0,4;0,0
31/08/2026;01:50:00;1011,1;-36,3;1;28,6;74;348;0,5;0,0
31/08/2026;01:55:00;1011,0;-36,3;1;28,5;74;11;0,6;0,0
31/08/2026;02:00:00;1010,9;-36,3;1;28,5;74;351;0,5;0,0
31/08/2026;02:05:00;1010,8;-36,3;2;28,5;74;358;0,4;0,0
31/08/2026;02:10:00;1010,7;-36,4;1;28,5;74;32;0,4;0,0
31/08/2026;02:15:00;1010,6;-36,4;1;28,4;74;69;0,3;0,0
31/08/2026;02:20:00;1010,5;-36,4;1;28,4;74;358;0,3;0,0
31/08/2026;02:25:00;1010,4;-36,4;1;28,4;74;28;13,9;0,0
31/08/2026;02:30:00;1010,3;-36,4;1;28,4;74;15;0,5;0,0
31/08/2026;02:35:00;1010,3;-36,4;1;28,3;75;332;0,4;0,0
31/08/2026;02:40:00;1010,2;-36,4;1;28,3;75;24;0,4;0,0
31/08/2026;02:45:00;1010,2;-36,4;1;28,2;75;355;0,6;0,0
31/08/2026;02:50:00;1010,2;-36,4;1;28,2;76;3;0,6;0,0
31/08/2026;02:55:00;1010,2;-36,5;1;28,2;76;28;0,5;0,0
31/08/2026;03:00:00;1010,2;-36,4;1;28,1;76;17;0,4;0,0
31/08/2026;03:05:00;1010,2;-36,5;1;28,1;76;6;0,5;0,0
31/08/2026;03:10:00;1010,2;-36,5;1;28,1;76;3;0,5;0,0
31/08/2026;03:15:00;1010,1;-36,4;1;28,0;76;360;0,7;0,0
31/08/2026;03:20:00;1010,1;-36,5;1;28,0;77;347;0,6;0,0
31/08/2026;03:25:00;1010,1;-36,6;1;28,0;77;356;0,5;0,0
31/08/2026;03:30:00;1010,1;-36,5;1;28,0;77;359;0,5;0,0
31/08/2026;03:35:00;1010,2;-36,6;1;28,0;77;16;0,4;0,0
31/08/2026;03:40:00;1010,2;-36,6;0;28,0;77;288;0,4;0,0
31/08/2026;03:45:00;1010,2;-36,6;1;28,0;77;262;0,3;0,0
31/08/2026;03:50:00;1010,1;-36,5;1;28,0;77;328;0,3;0,0
31/08/2026;03:55:00;1010,1;-36,5;1;28,0;77;352;0,5;0,0
31/08/2026;04:00:00;1010,1;-36,5;1;28,0;77;314;0,5;0,0
31/08/2026;04:05:00;1010,1;-36,6;1;28,0;77;354;0,5;0,0
31/08/2026;04:10:00;1010,0;-36,6;1;28,0;77;109;0,4;0,0
31/08/2026;04:15:00;1010,0;-36,6;1;28,0;77;346;0,5;0,0
31/08/2026;04:20:00;1010,0;-36,7;1;27,9;77;3;0,7;0,0
31/08/2026;04:25:00;1010,0;-36,7;1;27,9;77;342;0,6;0,0
31/08/2026;04:30:00;1010,1;-36,7;1;27,9;77;3;0,6;0,0
31/08/2026;04:35:00;1010,1;-36,7;1;27,9;77;10;0,5;0,0
31/08/2026;04:40:00;1010,2;-36,8;1;27,8;78;167;0,5;0,0
31/08/2026;04:45:00;1010,2;-36,7;1;27,9;78;336;0,4;0,0
31/08/2026;04:50:00;1010,2;-36,7;1;27,9;78;27;0,3;0,0
31/08/2026;04:55:00;1010,2;-36,7;1;27,8;78;357;0,5;0,0
31/08/2026;05:00:00;1010,2;-36,7;1;27,8;78;24;0,5;0,0
31/08/2026;05:05:00;1010,3;-36,7;1;27,8;78;19;0,4;0,0
31/08/2026;05:10:00;1010,3;-36,7;1;27,8;78;359;0,4;0,0
31/08/2026;05:15:00;1010,3;-36,7;1;27,8;78;22;0,6;0,0
31/08/2026;05:20:00;1010,4;-36,7;0;27,7;78;9;0,6;0,0
31/08/2026;05:25:00;1010,4;-36,8;0;27,7;78;21;0,4;0,0
31/08/2026;05:30:00;1010,3;-36,8;0;27,6;78;23;0,6;0,0
31/08/2026;05:35:00;1010,3;-36,8;0;27,6;78;351;0,6;0,0
31/08/2026;05:40:00;1010,3;-36,8;0;27,6;78;28;0,5;0,0
31/08/2026;05:45:00;1010,3;-36,7;1;27,5;78;55;0,4;0,0
31/08/2026;05:50:00;1010,3;-36,8;0;27,5;78;22;0,5;0,0
31/08/2026;05:55:00;1010,3;-36,7;1;27,4;79;30;0,6;0,0
31/08/2026;06:00:00;1010,4;-36,8;1;27,3;79;53;0,4;0,0
31/08/2026;06:05:00;1010,4;-36,8;0;27,3;79;350;0,5;0,0
31/08/2026;06:10:00;1010,4;-36,8;1;27,3;79;346;0,5;0,0
31/08/2026;06:15:00;1010,5;-36,8;0;27,2;79;352;0,5;0,0
31/08/2026;06:20:00;1010,5;-36,8;0;27,2;79;325;0,5;0,0
31/08/2026;06:25:00;1010,5;-36,8;0;27,2;80;343;0,6;0,0
31/08/2026;06:30:00;1010,5;-36,8;0;27,1;80;1;0,5;0,0
31/08/2026;06:35:00;1010,5;-36,8;0;27,1;80;344;0,6;0,0
31/08/2026;06:40:00;1010,6;-36,8;0;27,0;80;326;0,6;0,0
31/08/2026;06:45:00;1010,6;-36,8;0;27,0;80;6;0,7;0,0
31/08/2026;06:50:00;1010,6;-36,8;0;27,0;80;17;0,6;0,0
31/08/2026;06:55:00;1010,7;-36,8;0;27,0;81;13;0,6;0,0
31/08/2026;07:00:00;1010,8;-36,8;0;27,0;80;40;0,5;0,0
31/08/2026;07:05:00;1010,9;-36,8;0;27,0;80;16;0,7;0,0
31/08/2026;07:10:00;1011,0;-36,8;0;27,1;80;19;0,7;0,0
31/08/2026;07:15:00;1011,0;-36,8;0;27,2;80;355;0,4;0,0
31/08/2026;07:20:00;1011,1;-36,8;0;27,2;80;2;0,8;0,0
31/08/2026;07:25:00;1011,2;-36,8;0;27,2;80;357;0,6;0,0
31/08/2026;07:30:00;1011,3;-36,8;0;27,3;80;360;0,7;0,0
31/08/2026;07:35:00;1011,3;-36,8;0;27,4;79;7;0,9;0,0
31/08/2026;07:40:00;1011,4;-36,8;0;27,4;79;344;0,5;0,0
31/08/2026;07:45:00;1011,5;-36,7;0;27,5;79;340;0,6;0,0
31/08/2026;07:50:00;1011,5;-36,7;0;27,6;79;8;0,6;0,0
31/08/2026;07:55:00;1011,6;-36,7;0;27,7;78;39;0,5;0,0
31/08/2026;08:00:00;1011,7;-36,6;0;27,8;78;17;0,5;0,0
31/08/2026;08:05:00;1011,7;-36,6;0;28,0;78;19;0,5;0,0
31/08/2026;08:10:00;1011,8;-36,5;0;28,1;77;22;0,6;0,0
31/08/2026;08:15:00;1011,8;-36,5;0;28,2;77;279;0,6;0,0
31/08/2026;08:20:00;1011,9;-36,4;0;28,4;77;297;0,4;0,0
31/08/2026;08:25:00;1012,0;-36,4;0;28,6;76;346;0,6;0,0
31/08/2026;08:30:00;1012,1;-36,3;0;28,8;75;4;0,6;0,0
31/08/2026;08:35:00;1012,1;-36,3;0;28,9;75;151;0,8;0,0
31/08/2026;08:40:00;1012,2;-36,2;0;29,1;74;14;0,6;0,0
31/08/2026;08:45:00;1012,3;-36,1;0;29,3;74;152;0,9;0,0
31/08/2026;08:50:00;1012,4;-35,9;0;29,4;73;184;0,7;0,0
31/08/2026;08:55:00;1012,4;-35,7;0;29,6;72;221;0,6;0,0
31/08/2026;09:00:00;1012,5;-35,3;0;29,8;72;156;0,9;0,0
31/08/2026;09:05:00;1012,5;-34,9;0;30,1;72;150;0,9;0,0
31/08/2026;09:10:00;1012,6;-34,5;0;30,3;71;154;1,2;0,0
31/08/2026;09:15:00;1012,6;-33,9;0;30,5;69;150;1,1;0,0
31/08/2026;09:20:00;1012,5;-33,9;0;30,8;67;86;0,9;0,0
31/08/2026;09:25:00;1012,6;-33,9;0;31,4;65;181;1,0;0,0
31/08/2026;09:30:00;1012,6;-34,7;0;32,0;62;181;0,9;0,0
31/08/2026;09:35:00;1012,7;-36,1;0;32,6;59;174;1,3;0,0
31/08/2026;09:40:00;1012,7;-37,4;0;33,1;57;149;1,4;0,0
31/08/2026;09:45:00;1012,6;-38,1;0;33,5;56;151;1,1;0,0
31/08/2026;09:50:00;1012,6;-38,5;0;33,9;55;152;1,2;0,0
31/08/2026;09:55:00;1012,6;-38,7;0;34,3;53;149;1,6;0,0
31/08/2026;10:00:00;1012,6;-38,8;0;34,6;52;167;1,4;0,0
31/08/2026;10:05:00;1012,6;-38,9;0;34,9;51;164;1,2;0,0
31/08/2026;10:10:00;1012,6;-38,9;0;35,1;51;146;1,6;0,0
31/08/2026;10:15:00;1012,7;-39,0;0;35,3;50;139;2,4;0,0
31/08/2026;10:20:00;1012,7;-39,0;0;35,5;50;132;1,7;0,0
31/08/2026;10:25:00;1012,7;-39,0;0;35,6;49;144;1,4;0,0
31/08/2026;10:30:00;1012,7;-39,0;0;35,9;50;149;1,6;0,0
31/08/2026;10:35:00;1012,7;-39,0;0;36,1;49;146;1,8;0,0
31/08/2026;10:40:00;1012,7;-39,1;0;36,3;48;142;1,9;0,0
31/08/2026;10:45:00;1012,7;-38,9;1;36,4;48;142;2,1;0,0
31/08/2026;10:50:00;1012,7;-39,1;1;36,0;48;140;1,9;0,0
31/08/2026;10:55:00;1012,7;-39,1;1;35,9;49;147;2,0;0,0
31/08/2026;11:00:00;1012,6;-39,1;1;36,0;48;141;1,8;0,0
31/08/2026;11:05:00;1012,6;-39,1;1;36,1;48;144;1,7;0,0
31/08/2026;11:10:00;1012,6;-39,1;1;36,2;49;143;1,9;0,0
31/08/2026;11:15:00;1012,6;-39,1;1;36,4;47;137;1,8;0,0
31/08/2026;11:20:00;1012,6;-39,1;1;36,5;46;135;1,8;0,0
31/08/2026;11:25:00;1012,6;-39,1;1;36,6;45;136;1,9;0,0
31/08/2026;11:30:00;1012,7;-39,0;1;36,6;45;135;2,1;0,0
31/08/2026;11:35:00;1012,6;-39,1;1;36,7;46;146;1,5;0,0
31/08/2026;11:40:00;1012,6;-39,1;1;36,8;46;162;1,6;0,0
31/08/2026;11:45:00;1012,6;-39,1;1;36,6;45;141;2,1;0,0
31/08/2026;11:50:00;1012,6;-39,1;1;36,5;46;142;1,9;0,0
31/08/2026;11:55:00;1012,6;-39,1;1;36,4;46;135;1,9;0,0
31/08/2026;12:00:00;1012,5;-39,1;1;36,4;45;150;1,6;0,0
31/08/2026;12:05:00;1012,5;-39,1;1;36,7;45;151;1,7;0,0
31/08/2026;12:10:00;1012,4;-39,1;1;36,9;45;133;2,1;0,0
31/08/2026;12:15:00;1012,3;-39,1;1;37,1;44;167;1,0;0,0
31/08/2026;12:20:00;1012,3;-39,1;1;37,2;43;136;1,3;0,0
31/08/2026;12:25:00;1012,3;-39,1;1;37,3;44;150;1,6;0,0
31/08/2026;12:30:00;1012,2;-39,1;1;37,6;43;189;1,2;0,0
31/08/2026;12:35:00;1012,1;-39,1;1;37,7;43;156;1,2;0,0
31/08/2026;12:40:00;1012,1;-39,1;1;37,9;42;135;2,3;0,0
31/08/2026;12:45:00;1012,0;-39,2;1;37,9;41;165;1,5;0,0
31/08/2026;12:50:00;1012,0;-39,2;1;37,9;42;136;1,9;0,0
31/08/2026;12:55:00;1011,9;-39,2;1;37,8;42;127;2,0;0,0
31/08/2026;13:00:00;1011,8;-39,2;1;37,9;42;153;2,0;0,0
31/08/2026;13:05:00;1011,7;-39,2;1;38,1;42;161;1,7;0,0
31/08/2026;13:10:00;1011,7;-39,2;1;38,2;41;130;2,1;0,0
31/08/2026;13:15:00;1011,6;-39,2;1;38,3;41;137;2,0;0,0
31/08/2026;13:20:00;1011,5;-39,2;1;38,5;41;138;1,9;0,0
31/08/2026;13:25:00;1011,4;-39,2;1;38,6;41;143;2,1;0,0
31/08/2026;13:30:00;1011,3;-39,1;1;38,7;40;138;2,1;0,0
31/08/2026;13:35:00;1011,2;-39,2;1;38,7;40;135;2,1;0,0
31/08/2026;13:40:00;1011,1;-39,2;1;38,8;40;141;1,6;0,0
31/08/2026;13:45:00;1011,1;-39,2;1;39,0;40;163;1,6;0,0
31/08/2026;13:50:00;1011,0;-39,2;1;39,1;39;135;2,0;0,0
31/08/2026;13:55:00;1010,9;-39,2;1;39,2;39;142;1,7;0,0
31/08/2026;14:00:00;1010,9;-39,2;1;39,3;38;138;2,3;0,0
31/08/2026;14:05:00;1010,8;-39,2;1;39,4;38;148;2,0;0,0
31/08/2026;14:10:00;1010,7;-39,2;1;39,5;37;128;2,5;0,0
31/08/2026;14:15:00;1010,7;-39,1;1;39,5;37;134;2,4;0,0
31/08/2026;14:20:00;1010,6;-39,2;1;39,5;38;153;2,0;0,0
31/08/2026;14:25:00;1010,6;-39,2;1;39,5;38;145;1,7;0,0
31/08/2026;14:30:00;1010,6;-39,2;1;39,7;38;143;1,9;0,0
31/08/2026;14:35:00;1010,5;-39,2;1;39,7;37;146;1,6;0,0
31/08/2026;14:40:00;1010,5;-39,2;1;39,8;36;133;1,5;0,0
31/08/2026;14:45:00;1010,4;-39,2;1;39,8;37;133;1,8;0,0
31/08/2026;14:50:00;1010,3;-39,2;1;39,9;36;139;1,5;0,0
31/08/2026;14:55:00;1010,2;-39,2;1;39,9;36;158;1,5;0,0
31/08/2026;15:00:00;1010,2;-39,1;1;39,8;36;133;1,9;0,0
31/08/2026;15:05:00;1010,2;-39,2;1;39,7;36;127;2,0;0,0
31/08/2026;15:10:00;1010,2;-39,2;1;39,6;37;143;1,8;0,0
31/08/2026;15:15:00;1010,2;-39,2;1;39,6;37;139;1,8;0,0
31/08/2026;15:20:00;1010,2;-39,2;1;39,7;37;140;1,7;0,0
31/08/2026;15:25:00;1010,1;-39,2;1;39,7;37;137;1,6;0,0
31/08/2026;15:30:00;1010,1;-39,2;1;39,7;37;130;2,0;0,0
31/08/2026;15:35:00;1010,1;-39,2;1;39,7;37;139;1,4;0,0
31/08/2026;15:40:00;1010,1;-39,2;1;39,7;37;126;1,6;0,0
31/08/2026;15:45:00;1010,0;-39,2;1;39,7;37;154;1,5;0,0
31/08/2026;15:50:00;1010,0;-39,2;1;39,7;37;157;1,8;0,0
31/08/2026;15:55:00;1010,0;-39,2;1;39,6;37;126;2,1;0,0
31/08/2026;16:00:00;1010,0;-39,1;1;39,3;37;130;2,2;0,0
31/08/2026;16:05:00;1010,0;-39,2;1;39,0;38;134;2,0;0,0
31/08/2026;16:10:00;1010,0;-39,2;1;38,7;39;144;1,6;0,0
31/08/2026;16:15:00;1009,9;-39,2;1;38,3;40;136;1,9;0,0
31/08/2026;16:20:00;1009,9;-39,2;1;37,7;41;140;1,6;0,0
31/08/2026;16:25:00;1009,9;-39,2;1;37,0;43;137;1,7;0,0
31/08/2026;16:30:00;1010,0;-39,2;1;36,5;44;131;2,2;0,0
31/08/2026;16:35:00;1010,0;-39,2;1;36,0;45;138;1,9;0,0
31/08/2026;16:40:00;1010,0;-39,1;1;35,6;46;133;2,3;0,0
31/08/2026;16:45:00;1010,0;-39,0;1;35,3;46;126;1,9;0,0
31/08/2026;16:50:00;1010,0;-39,1;1;35,0;48;138;1,9;0,0
31/08/2026;16:55:00;1010,0;-39,1;1;34,8;48;143;1,9;0,0
31/08/2026;17:00:00;1010,0;-39,1;1;34,6;49;142;1,5;0,0
31/08/2026;17:05:00;1010,0;-39,1;1;34,4;49;144;1,9;0,0
31/08/2026;17:10:00;1010,0;-39,0;1;34,2;50;153;1,9;0,0
31/08/2026;17:15:00;1010,0;-38,9;1;34,0;51;145;1,4;0,0
31/08/2026;17:20:00;1010,0;-39,0;1;33,9;51;163;1,3;0,0
31/08/2026;17:25:00;1010,0;-39,0;1;33,8;52;165;1,3;0,0
31/08/2026;17:30:00;1010,1;-38,9;1;33,7;52;162;1,3;0,0
31/08/2026;17:35:00;1010,1;-38,9;1;33,6;52;152;1,4;0,0
31/08/2026;17:40:00;1010,1;-38,9;1;33,4;52;141;1,4;0,0
31/08/2026;17:45:00;1010,1;-38,9;1;33,3;53;146;1,5;0,0
31/08/2026;17:50:00;1010,1;-38,8;1;33,2;53;135;1,6;0,0
31/08/2026;17:55:00;1010,2;-38,8;1;33,1;53;137;1,4;0,0
31/08/2026;18:00:00;1010,2;-38,8;1;32,9;54;139;1,5;0,0
31/08/2026;18:05:00;1010,2;-38,8;1;32,8;54;158;1,1;0,0
31/08/2026;18:10:00;1010,3;-38,7;1;32,7;55;173;0,7;0,0
31/08/2026;18:15:00;1010,3;-38,7;1;32,6;54;156;1,1;0,0
31/08/2026;18:20:00;1010,3;-38,7;1;32,5;55;142;1,1;0,0
31/08/2026;18:25:00;1010,4;-38,6;1;32,4;55;149;1,3;0,0
31/08/2026;18:30:00;1010,5;-38,6;1;32,3;55;131;1,4;0,0
31/08/2026;18:35:00;1010,5;-38,5;1;32,1;56;147;1,3;0,0
31/08/2026;18:40:00;1010,6;-38,4;1;32,0;57;139;1,1;0,0
31/08/2026;18:45:00;1010,6;-38,3;1;31,9;57;160;1,0;0,0
31/08/2026;18:50:00;1010,6;-38,2;1;31,8;57;158;1,3;0,0
31/08/2026;18:55:00;1010,7;-38,1;1;31,7;58;146;1,3;0,0
31/08/2026;19:00:00;1010,7;-38,0;1;31,6;58;178;1,0;0,0
31/08/2026;19:05:00;1010,8;-37,9;1;31,5;59;173;1,1;0,0
31/08/2026;19:10:00;1010,8;-37,8;1;31,4;59;166;1,1;0,0
31/08/2026;19:15:00;1010,7;-37,8;1;31,4;59;175;1,4;0,0
31/08/2026;19:20:00;1010,8;-37,7;1;31,3;59;149;1,2;0,0
31/08/2026;19:25:00;1010,8;-37,6;1;31,2;60;134;1,3;0,0
31/08/2026;19:30:00;1010,9;-37,5;1;31,1;60;142;1,6;0,0
31/08/2026;19:35:00;1010,9;-37,3;1;31,0;61;171;0,9;0,0
31/08/2026;19:40:00;1010,9;-37,2;1;31,0;61;146;1,4;0,0
31/08/2026;19:45:00;1010,9;-37,1;1;30,9;61;169;1,2;0,0
31/08/2026;19:50:00;1010,9;-37,0;1;30,9;62;175;1,3;0,0
31/08/2026;19:55:00;1011,0;-36,9;1;30,8;62;175;1,2;0,0
31/08/2026;20:00:00;1011,0;-36,8;1;30,8;62;175;0,7;0,0
31/08/2026;20:05:00;1011,1;-36,7;1;30,8;62;217;0,8;0,0
31/08/2026;20:10:00;1011,1;-36,6;1;30,8;63;177;1,1;0,0
31/08/2026;20:15:00;1011,2;-36,5;1;30,7;63;207;1,0;0,0
31/08/2026;20:20:00;1011,3;-36,4;1;30,7;62;175;0,9;0,0
31/08/2026;20:25:00;1011,4;-36,3;1;30,6;63;194;0,7;0,0
31/08/2026;20:30:00;1011,5;-36,2;1;30,6;63;269;0,5;0,0
31/08/2026;20:35:00;1011,6;-36,2;1;30,6;63;297;0,5;0,0
31/08/2026;20:40:00;1011,7;-36,1;1;30,5;64;273;0,3;0,0
31/08/2026;20:45:00;1011,7;-36,1;1;30,5;64;228;0,5;0,0
31/08/2026;20:50:00;1011,8;-36,0;1;30,4;64;190;0,4;0,0
31/08/2026;20:55:00;1011,8;-36,0;1;30,4;65;234;0,5;0,0
31/08/2026;21:00:00;1011,9;-35,9;1;30,3;65;305;0,5;0,0
31/08/2026;21:05:00;1011,9;-35,9;1;30,3;64;263;0,6;0,0
31/08/2026;21:10:00;1012,0;-35,9;1;30,2;65;279;0,4;0,0
31/08/2026;21:15:00;1012,0;-35,9;1;30,2;65;192;0,3;0,0
31/08/2026;21:20:00;1012,1;-35,8;1;30,2;65;282;0,4;0,0
31/08/2026;21:25:00;1012,1;-35,8;1;30,1;65;13;0,5;0,0
31/08/2026;21:30:00;1012,2;-35,8;1;30,0;65;134;0,4;0,0
31/08/2026;21:35:00;1012,3;-35,9;1;30,0;66;349;0,5;0,0
31/08/2026;21:40:00;1012,4;-35,9;1;29,9;66;276;0,3;0,0
31/08/2026;21:45:00;1012,4;-36,0;1;29,8;66;276;0,4;0,0
31/08/2026;21:50:00;1012,4;-36,0;1;29,8;67;269;0,5;0,0
31/08/2026;21:55:00;1012,5;-36,0;1;29,7;67;265;0,4;0,0
31/08/2026;22:00:00;1012,5;-36,0;1;29,7;67;3;0,5;0,0
31/08/2026;22:05:00;1012,5;-36,1;1;29,6;67;299;0,5;0,0
31/08/2026;22:10:00;1012,6;-36,1;1;29,6;67;234;0,4;0,0
31/08/2026;22:15:00;1012,7;-36,1;1;29,5;68;305;0,5;0,0
31/08/2026;22:20:00;1012,7;-36,1;1;29,5;68;345;0,4;0,0
31/08/2026;22:25:00;1012,8;-36,1;1;29,5;68;346;0,5;0,0
31/08/2026;22:30:00;1012,8;-36,2;1;29,4;69;353;0,6;0,0
31/08/2026;22:35:00;1012,9;-36,2;1;29,3;69;312;0,6;0,0
31/08/2026;22:40:00;1012,9;-36,2;1;29,3;69;339;0,5;0,0
31/08/2026;22:45:00;1013,0;-36,3;1;29,2;69;351;0,6;0,0
31/08/2026;22:50:00;1013,1;-36,3;1;29,2;70;324;0,4;0,0
31/08/2026;22:55:00;1013,1;-36,3;1;29,2;70;316;0,5;0,0
31/08/2026;23:00:00;1013,2;-36,3;1;29,2;70;3;0,5;0,0
31/08/2026;23:05:00;1013,2;-36,3;1;29,1;70;3;0,4;0,0
31/08/2026;23:10:00;1013,3;-36,4;1;29,0;70;327;0,3;0,0
31/08/2026;23:15:00;1013,3;-36,4;1;29,0;70;308;0,5;0,0
31/08/2026;23:20:00;1013,4;-36,4;1;29,0;71;351;0,4;0,0
31/08/2026;23:25:00;1013,4;-36,4;1;29,0;71;21;0,4;0,0
31/08/2026;23:30:00;1013,3;-36,4;1;28,9;71;40;0,4;0,0
31/08/2026;23:35:00;1013,2;-36,4;1;28,9;71;333;0,5;0,0
31/08/2026;23:40:00;1013,2;-36,4;1;28,9;71;342;0,6;0,0
31/08/2026;23:45:00;1013,1;-36,4;1;28,8;71;351;0,6;0,0
31/08/2026;23:50:00;1013,1;-36,4;1;28,8;71;337;0,6;0,0
31/08/2026;23:55:00;1013,1;-36,4;1;28,7;71;326;0,6;0,0
